SCP
0 0 0 0 0 0 0 0 0 0 0 0 0 0 0 0 0 0 0 0 0 0 0 0 0 0 0 0 0 0 0 0 0 0 0 0 0 0 0 0 0 0 0 0
0 0 0 0 0 0 0 0 0 0 0 0 0 0 0 0 0 0 0 0 0 0 0 0 0 0 0 0 0 0 0 0 0 0 0 0 0 0 0 0 0 0 0 0
0 0 0 0 0 0 0 0 0 0 0 0 0 0 0 0 0 0 0 0 0 0 0 0 0 0 0 0 0 0 0 0 0 0 0 0 0 0 0 0 0 0 0 0
0 0 0 0 0 0 0 0 0 0 0 0 0 0 0 0 0 0 0 0 0 0 0 0 0 0 0 0 0 0 0 0 0 0 0 0 0 0 0 0 0 0 0 0
0 0 0 0 0 0 0 0 0 0 0 0 0 0 0 0 0 0 0 0 0 0 0 0 0 0 0 0 0 0 0 0 0 0 0 0 0 0 0 0 0 0 0 0
0 0 0 0 0 0 0 0 0 0 0 0 0 0 0 0 0 0 0 0 0 0 0 0 0 0 0 0 0 0 0 0 0 0 0 0 0 0 0 0 0 0 0 0
0 0 0 0 0 0 0 0 0 0 0 0 0 0 0 0 0 0 0 0 0 0 0 0 0 0 0 0 0 0 0 0 0 0 0 0 0 0 0 0 0 0 0 0
0 0 0 0 0 0 0 0 0 0 0 0 0 0 0 0 0 0 0 0 0 0 0 0 0 0 0 0 0 0 0 0 0 0 0 0 0 0 0 0 0 0 0 0
0 0 0 0 0 0 0 0 0 0 0 0 0 0 0 0 0 0 0 0 0 0 0 0 0 0 0 0 0 0 0 0 0 0 0 0 0 0 0 0 0 0 0 0
0 0 0 0 0 0 0 0 -0 0 0 0 0 0 0 0 0 0 0 0 0 0 0 0 0 0 0 0 0 0 0 0 0 0 0 0 0 0 0 0 0 0 0 0
0 -0 0 0 0 0 0 0 0 -0 0 0 0 0 0 0 0 0 0 0 0 0 0 0 0 0 0 0 0 0 0 0 0 0 0 0 0 0 0 0 0 0 0 0
0 0 0 0 0 0 0 0 0 0 0 0 0 0 0 0 0 0 0 0 0 0 0 0 0 0 0 0 0 0 0 0 0 0 0 0 0 0 0 0 0 0 0 0
0 0 0 0 0 0 0 0 0 0 0 0 0 0 0 0 0 0 0 0 0 0 0 0 0 0 0 0 0 0 0 0 0 0 0 0 0 0 0 0 0 0 0 0
-0 -0 0 0 0 0 0 0 0 0 -0 0 0 0 0 0 0 0 0 0 0 0 0 0 0 0 0 0 0 0 0 0 0 0 0 0 0 0 0 0 0 0 0 0
-0 -0 0 0 0 0 0 0 0 0 0 0 0 0 0 0 0 0 0 0 0 0 0 0 0 0 0 0 0 0 0 0 0 0 0 0 0 0 0 0 0 0 0 0
-0 -0 0 0 0 0 0 0 0 0 0 -0 0 0 0 0 0 0 0 0 0 0 0 0 0 0 0 0 0 0 0 0 0 0 0 0 0 0 0 0 0 0 0 0
0 0 -0 -0 0 0 0 0 0 0 0 0 0 0 0 0 0 0 0 0 0 0 0 0 0 0 0 0 0 0 0 0 0 0 0 0 0 0 0 0 0 0 0 0
0 0 0 -0 0 0 0 0 0 0 0 0 0 0 0 0 0 0 0 0 0 0 0 0 0 0 0 -0 0 0 0 0 0 0 0 0 0 0 0 0 0 0 0 0
0 0 0 -0 0 0 0 0 -0 0 0 0 0 0 0 0 0 0 0 0 0 0 0 0 0 0 0 0 0 0 0 0 0 0 0 0 0 0 0 0 0 0 0 0
0 0 0 0 0 0 0 0 -0 -0 0 0 0 0 0 0 0 0 0 0 0 0 0 0 0 0 0 0 0 0 0 0 0 0 0 0 0 0 0 0 0 0 0 0
0 0 0 0 0 0 0 0 0 0 0 0 0 0 0 0 0 0 0 0 0 0 0 0 0 0 -0 -0 0 0 0 0 0 0 0 0 0 0 0 0 0 0 0 0
0 0 0 0 0 0 0 0 0 0 0 0 0 0 0 0 0 0 0 0 0 0 0 0 0 -0 -0 0 0 0 0 0 0 0 0 0 0 0 0 -0 0 0 0 0
0 0 0 0 0 0 0 0 0 0 0 0 0 0 0 0 0 0 0 0 0 0 0 0 -0 0 0 -0 -0 -0 0 0 0 0 0 0 0 0 0 0 0 0 0 0
0 0 0 0 0 -0 -0 0 0 -0 0 0 0 0 0 0 0 0 0 0 0 0 0 0 -0 -0 -0 -0 -0 -0 -0 0 0 0 0 0 0 0 0 0 0 0 0 0
0 0 0 -0 -0 -0 -0 -0 0 0 0 0 0 0 0 0 0 0 0 0 0 0 0 -0 -0 0 0 0 0 -0 0 0 0 0 0 0 0 0 0 0 0 0 0 0
-0 0 -0 -0 -0 -0 -0 -0 -0 0 0 0 0 0 0 0 0 0 0 0 0 0 0 0 0 0 0 0 0 0 0 0 0 0 0 0 0 0 0 0 0 0 0 0
-0 -0 -0 -0 -0 0 0 0 0 0 0 0 0 0 0 0 0 0 0 0 0 0 0 0 0 -0 -0 0 0 0 0 0 0 0 0 0 0 0 0 0 0 0 0 0
Wind_Speed_500mb
44 44 35 31 29 20 25 39 7 32 45 8 6 9 10 11 9 7 4 2 9 11 10 7 5 10 3 14 15 9 3 7 4 13 2 8 8 12 10 9 10 8 6 16
40 41 42 31 31 25 37 20 13 44 51 8 7 3 4 5 10 10 9 7 5 4 10 1 6 7 6 21 7 11 12 2 6 13 7 6 7 9 7 8 6 11 9 15
47 45 47 41 39 27 48 18 7 13 28 8 10 11 7 9 20 5 11 6 8 6 2 3 8 6 3 10 5 8 8 6 12 13 8 6 8 11 15 12 7 7 18 22
47 48 45 57 48 46 64 30 13 23 11 12 8 19 20 16 13 5 15 3 11 11 7 3 8 7 5 1 14 6 6 7 6 11 24 13 21 22 18 26 19 13 11 17
52 52 53 60 55 50 55 31 14 15 19 40 26 20 20 20 9 17 10 10 18 15 12 14 14 12 10 11 10 11 4 3 4 11 7 11 17 26 33 37 30 30 44 54
56 53 52 61 62 51 43 49 43 27 28 13 21 18 18 27 26 23 22 30 12 18 20 8 4 12 11 18 15 12 11 8 5 12 12 14 14 15 27 11 12 21 15 28
61 57 60 63 77 72 62 42 41 29 11 19 18 23 35 27 38 11 16 22 17 18 30 34 27 34 29 17 11 11 11 9 6 8 11 6 9 5 20 23 13 30 14 17
62 63 66 67 84 79 73 66 47 42 20 29 25 24 17 19 23 5 13 8 21 46 19 6 7 8 9 8 7 6 7 8 2 3 4 17 9 7 12 14 16 28 35 31
64 64 69 70 76 83 71 76 74 27 23 29 42 31 33 13 10 8 7 20 48 24 5 6 9 11 9 5 12 8 6 10 7 6 7 12 10 8 11 9 10 13 29 22
66 65 71 70 75 79 74 70 78 60 21 34 64 22 32 30 14 9 14 19 13 14 5 5 8 8 6 8 17 12 8 4 10 7 7 20 18 11 12 10 11 16 36 30
64 71 62 59 72 79 66 78 74 73 15 37 73 64 46 34 33 13 25 15 4 5 9 9 9 7 13 7 12 14 18 19 10 6 3 18 24 13 14 9 3 24 29 26
55 55 68 68 80 68 71 74 72 70 37 9 56 73 65 79 84 54 61 12 18 23 7 8 5 5 2 8 7 9 8 15 13 23 16 7 58 16 38 8 14 24 33 26
38 50 64 69 82 78 71 68 70 58 47 39 31 57 70 69 60 60 31 14 29 29 19 11 5 8 9 9 12 10 9 17 7 4 14 35 54 69 62 47 49 39 30 29
30 41 43 28 56 70 79 64 43 66 20 9 13 37 59 64 61 60 54 34 53 36 29 8 5 6 16 7 3 6 10 21 11 14 20 40 64 63 57 51 55 65 64 53
26 39 43 12 42 57 51 59 70 58 50 7 8 39 42 56 63 57 48 42 53 37 13 5 7 7 5 2 4 7 18 15 12 16 27 16 24 26 18 28 38 38 42 46
14 20 33 19 24 31 35 22 45 63 37 16 9 13 21 45 54 51 45 46 45 24 18 9 10 9 11 7 7 15 56 65 68 42 61 56 55 49 37 32 29 28 32 34
10 13 18 23 10 16 17 13 26 38 64 12 6 5 13 45 51 35 44 41 18 13 15 10 10 10 12 6 15 11 48 61 74 83 82 58 66 44 33 29 31 32 31 31
10 8 13 11 14 13 6 49 21 3 25 13 7 2 12 27 10 13 16 15 14 11 10 10 6 6 6 12 12 52 73 89 89 97 87 88 71 54 44 37 40 44 41 34
6 9 13 12 12 7 4 6 13 27 12 8 10 11 10 28 8 15 10 10 4 9 4 5 13 3 15 16 29 55 67 63 72 55 61 80 84 76 68 60 54 51 46 42
9 10 4 7 2 10 16 6 11 12 16 14 6 17 8 24 9 7 12 8 6 6 6 17 6 11 37 42 51 71 102 80 67 55 48 50 66 73 69 68 60 61 53 41
5 4 9 12 16 9 9 10 13 14 6 16 16 14 14 16 7 7 5 6 5 6 7 9 6 10 11 55 85 100 106 86 87 93 90 66 50 31 34 38 41 54 58 55
11 8 10 8 8 8 9 9 9 9 13 10 12 19 17 17 15 8 7 7 5 8 11 4 8 10 51 48 50 50 56 67 77 83 82 83 78 56 43 24 22 30 49 55
18 8 7 12 11 1 12 17 5 7 8 21 25 16 20 13 8 10 7 8 5 8 2 9 11 25 39 44 41 40 41 35 42 62 65 65 70 79 81 72 59 41 32 49
14 15 10 10 7 13 13 14 12 21 37 36 68 21 9 11 7 5 11 2 4 3 3 17 7 42 35 42 39 34 25 31 37 38 44 50 51 59 72 80 76 66 52 38
12 12 10 15 5 10 15 16 11 22 72 69 20 20 16 4 9 5 10 6 10 15 14 7 17 10 18 20 18 17 21 26 31 33 40 47 47 44 51 63 64 68 65 49
13 12 7 6 1 7 12 28 29 51 73 63 30 8 9 5 12 8 16 16 16 10 8 24 13 9 7 11 16 21 25 30 32 29 28 35 40 43 45 46 59 69 67 62
10 9 23 12 16 18 39 42 39 74 64 25 8 11 9 9 6 6 10 14 8 12 25 18 15 13 8 16 26 29 31 32 31 27 24 20 21 30 43 51 51 53 60 64
Wind_Direction_500mb
283 264 265 256 251 263 233 209 188 170 170 137 195 172 201 155 175 206 201 308 187 191 166 158 226 209 212 146 148 164 240 139 218 220 211 122 165 196 146 126 257 224 168 268
293 277 252 247 236 247 220 219 140 176 183 183 194 216 132 176 162 208 168 229 185 104 184 177 179 134 34 143 145 183 194 345 2 341 344 5 199 198 146 122 91 218 141 262
281 279 252 238 222 228 226 188 143 166 206 206 175 132 192 199 209 173 189 168 128 114 112 15 204 155 212 172 129 146 147 113 172 202 201 135 201 193 182 140 142 211 229 277
271 278 269 247 224 219 221 218 211 173 185 209 192 173 166 173 169 166 182 335 210 168 173 50 229 145 110 147 169 163 118 182 193 244 258 240 249 238 205 207 196 183 258 225
272 272 263 240 241 221 239 212 183 177 163 166 176 197 191 165 166 153 208 205 197 172 200 189 199 144 191 193 182 168 180 253 36 293 273 225 260 231 221 232 235 253 259 278
268 268 269 253 246 234 241 233 223 203 172 154 177 190 169 199 147 215 177 193 154 194 217 157 133 173 172 161 155 171 155 126 83 269 344 303 296 229 189 193 216 206 195 232
265 269 266 258 244 239 242 230 211 205 211 179 187 158 182 194 193 149 174 192 185 159 146 129 103 82 76 92 43 155 137 121 117 263 351 345 246 189 177 195 222 207 264 256
262 266 269 259 241 243 240 242 230 200 219 193 171 163 167 148 167 107 144 163 150 146 133 90 68 350 17 330 23 23 131 129 91 156 213 298 297 175 156 174 279 207 224 250
263 268 270 262 245 238 240 239 233 247 199 204 182 171 166 151 141 117 107 142 154 148 101 99 185 201 191 274 352 337 108 80 123 79 159 233 242 167 141 123 293 206 195 235
267 274 267 257 244 237 236 236 236 228 245 210 184 177 180 163 139 118 141 148 153 153 133 162 197 213 149 175 167 173 172 176 187 187 238 284 241 173 142 82 245 186 196 215
264 268 269 250 238 234 231 231 231 213 245 197 194 194 155 150 160 144 154 110 161 142 185 188 199 196 208 150 168 182 171 160 191 115 150 278 166 118 184 213 214 199 197 209
263 258 270 254 241 235 226 230 227 216 222 274 202 205 205 208 205 174 167 162 153 161 149 206 178 190 113 167 224 146 224 197 182 189 212 238 189 213 218 240 234 214 217 224
274 283 275 259 226 228 229 234 212 209 213 231 234 191 198 205 208 207 155 180 169 183 174 155 172 210 140 175 234 186 236 186 236 145 239 235 235 239 250 253 254 251 246 246
274 282 320 210 208 213 214 202 167 192 165 195 208 193 190 200 206 204 205 210 180 174 173 159 156 197 190 216 228 194 192 146 187 264 281 279 265 253 267 265 265 260 255 254
290 308 335 306 181 194 200 206 198 204 190 124 171 183 184 192 199 200 201 195 176 161 162 163 209 190 172 146 71 239 191 185 180 227 214 230 260 274 254 249 274 273 256 245
272 294 311 337 149 170 157 182 219 206 182 171 160 127 165 178 185 188 185 177 173 171 163 189 199 201 189 215 226 243 221 223 233 246 267 261 269 272 262 263 275 269 256 251
272 280 321 320 101 155 174 165 127 193 208 151 116 81 114 154 158 150 161 169 161 153 167 183 167 199 204 241 245 220 248 250 247 251 251 262 256 256 274 263 267 257 256 241
276 299 316 343 338 340 230 202 213 126 155 156 96 108 139 164 137 115 141 133 140 158 162 150 176 173 223 254 225 231 248 252 253 254 250 253 256 259 260 262 256 253 250 249
326 283 312 313 269 261 320 257 239 259 198 167 132 164 163 153 158 112 103 119 132 159 170 192 163 220 230 223 204 224 243 238 249 257 255 248 250 255 259 260 251 244 247 247
259 279 320 289 203 270 272 196 147 170 202 215 125 143 144 157 146 108 120 152 149 174 213 147 195 251 250 242 243 255 257 249 249 244 237 235 241 246 249 250 251 248 248 250
288 223 236 265 286 321 175 194 175 173 206 189 129 148 137 164 120 127 155 155 133 173 231 168 255 268 239 254 251 259 259 253 253 253 259 254 262 253 244 247 253 241 234 234
184 232 288 279 220 228 239 209 164 191 192 176 148 134 120 132 143 110 175 131 128 208 135 118 262 252 259 271 274 279 272 261 259 259 256 250 246 242 241 252 257 252 234 228
239 220 244 193 194 136 250 194 140 147 167 180 159 127 144 124 123 78 102 112 143 108 106 230 233 259 273 281 298 304 279 281 273 263 259 254 249 244 245 251 253 260 254 228
209 182 227 209 192 218 208 254 159 206 161 173 160 119 119 113 63 145 101 52 89 81 264 233 233 244 273 304 300 293 302 285 283 282 258 251 251 249 243 244 246 247 247 237
225 212 215 218 228 280 264 326 308 178 161 151 125 86 105 90 112 63 117 98 231 215 228 232 230 307 296 303 314 316 316 313 302 281 259 258 257 250 239 234 237 237 237 241
226 237 261 109 186 275 338 262 235 168 155 149 151 116 82 111 122 135 206 149 220 238 213 232 231 272 284 336 337 323 317 314 322 314 289 268 258 249 244 236 231 232 231 232
231 229 221 203 246 253 269 256 193 163 143 157 137 119 170 109 87 242 198 210 199 211 215 227 230 210 266 346 340 327 320 312 318 323 315 302 280 260 243 233 230 234 229 227
Wind_Speed_850mb
44 44 35 31 29 20 25 39 7 32 45 8 6 9 10 11 9 7 4 2 9 11 10 7 5 10 3 14 15 9 3 7 4 13 2 8 8 12 10 9 10 8 6 16
40 41 42 31 31 25 37 20 13 44 51 8 7 3 4 5 10 10 9 7 5 4 10 1 6 7 6 21 7 11 12 2 6 13 7 6 7 9 7 8 6 11 9 15
47 45 47 41 39 27 48 18 7 13 28 8 10 11 7 9 20 5 11 6 8 6 2 3 8 6 3 10 5 8 8 6 12 13 8 6 8 11 15 12 7 7 18 22
47 48 45 57 48 46 64 30 13 23 11 12 8 19 20 16 13 5 15 3 11 11 7 3 8 7 5 1 14 6 6 7 6 11 24 13 21 22 18 26 19 13 11 17
52 52 53 60 55 50 55 31 14 15 19 40 26 20 20 20 9 17 10 10 18 15 12 14 14 12 10 11 10 11 4 3 4 11 7 11 17 26 33 37 30 30 44 54
56 53 52 61 62 51 43 49 43 27 28 13 21 18 18 27 26 23 22 30 12 18 20 8 4 12 11 18 15 12 11 8 5 12 12 14 14 15 27 11 12 21 15 28
61 57 60 63 77 72 62 42 41 29 11 19 18 23 35 27 38 11 16 22 17 18 30 34 27 34 29 17 11 11 11 9 6 8 11 6 9 5 20 23 13 30 14 17
62 63 66 67 84 79 73 66 47 42 20 29 25 24 17 19 23 5 13 8 21 46 19 6 7 8 9 8 7 6 7 8 2 3 4 17 9 7 12 14 16 28 35 31
64 64 69 70 76 83 71 76 74 27 23 29 42 31 33 13 10 8 7 20 48 24 5 6 9 11 9 5 12 8 6 10 7 6 7 12 10 8 11 9 10 13 29 22
66 65 71 70 75 79 74 70 78 60 21 34 64 22 32 30 14 9 14 19 13 14 5 5 8 8 6 8 17 12 8 4 10 7 7 20 18 11 12 10 11 16 36 30
64 71 62 59 72 79 66 78 74 73 15 37 73 64 46 34 33 13 25 15 4 5 9 9 9 7 13 7 12 14 18 19 10 6 3 18 24 13 14 9 3 24 29 26
55 55 68 68 80 68 71 74 72 70 37 9 56 73 65 79 84 54 61 12 18 23 7 8 5 5 2 8 7 9 8 15 13 23 16 7 58 16 38 8 14 24 33 26
38 50 64 69 82 78 71 68 70 58 47 39 31 57 70 69 60 60 31 14 29 29 19 11 5 8 9 9 12 10 9 17 7 4 14 35 54 69 62 47 49 39 30 29
30 41 43 28 56 70 79 64 43 66 20 9 13 37 59 64 61 60 54 34 53 36 29 8 5 6 16 7 3 6 10 21 11 14 20 40 64 63 57 51 55 65 64 53
26 39 43 12 42 57 51 59 70 58 50 7 8 39 42 56 63 57 48 42 53 37 13 5 7 7 5 2 4 7 18 15 12 16 27 16 24 26 18 28 38 38 42 46
14 20 33 19 24 31 35 22 45 63 37 16 9 13 21 45 54 51 45 46 45 24 18 9 10 9 11 7 7 15 56 65 68 42 61 56 55 49 37 32 29 28 32 34
10 13 18 23 10 16 17 13 26 38 64 12 6 5 13 45 51 35 44 41 18 13 15 10 10 10 12 6 15 11 48 61 74 83 82 58 66 44 33 29 31 32 31 31
10 8 13 11 14 13 6 49 21 3 25 13 7 2 12 27 10 13 16 15 14 11 10 10 6 6 6 12 12 52 73 89 89 97 87 88 71 54 44 37 40 44 41 34
6 9 13 12 12 7 4 6 13 27 12 8 10 11 10 28 8 15 10 10 4 9 4 5 13 3 15 16 29 55 67 63 72 55 61 80 84 76 68 60 54 51 46 42
9 10 4 7 2 10 16 6 11 12 16 14 6 17 8 24 9 7 12 8 6 6 6 17 6 11 37 42 51 71 102 80 67 55 48 50 66 73 69 68 60 61 53 41
5 4 9 12 16 9 9 10 13 14 6 16 16 14 14 16 7 7 5 6 5 6 7 9 6 10 11 55 85 100 106 86 87 93 90 66 50 31 34 38 41 54 58 55
11 8 10 8 8 8 9 9 9 9 13 10 12 19 17 17 15 8 7 7 5 8 11 4 8 10 51 48 50 50 56 67 77 83 82 83 78 56 43 24 22 30 49 55
18 8 7 12 11 1 12 17 5 7 8 21 25 16 20 13 8 10 7 8 5 8 2 9 11 25 39 44 41 40 41 35 42 62 65 65 70 79 81 72 59 41 32 49
14 15 10 10 7 13 13 14 12 21 37 36 68 21 9 11 7 5 11 2 4 3 3 17 7 42 35 42 39 34 25 31 37 38 44 50 51 59 72 80 76 66 52 38
12 12 10 15 5 10 15 16 11 22 72 69 20 20 16 4 9 5 10 6 10 15 14 7 17 10 18 20 18 17 21 26 31 33 40 47 47 44 51 63 64 68 65 49
13 12 7 6 1 7 12 28 29 51 73 63 30 8 9 5 12 8 16 16 16 10 8 24 13 9 7 11 16 21 25 30 32 29 28 35 40 43 45 46 59 69 67 62
10 9 23 12 16 18 39 42 39 74 64 25 8 11 9 9 6 6 10 14 8 12 25 18 15 13 8 16 26 29 31 32 31 27 24 20 21 30 43 51 51 53 60 64
Wind_Direction_850mb
283 264 265 256 251 263 233 209 188 170 170 137 195 172 201 155 175 206 201 308 187 191 166 158 226 209 212 146 148 164 240 139 218 220 211 122 165 196 146 126 257 224 168 268
293 277 252 247 236 247 220 219 140 176 183 183 194 216 132 176 162 208 168 229 185 104 184 177 179 134 34 143 145 183 194 345 2 341 344 5 199 198 146 122 91 218 141 262
281 279 252 238 222 228 226 188 143 166 206 206 175 132 192 199 209 173 189 168 128 114 112 15 204 155 212 172 129 146 147 113 172 202 201 135 201 193 182 140 142 211 229 277
271 278 269 247 224 219 221 218 211 173 185 209 192 173 166 173 169 166 182 335 210 168 173 50 229 145 110 147 169 163 118 182 193 244 258 240 249 238 205 207 196 183 258 225
272 272 263 240 241 221 239 212 183 177 163 166 176 197 191 165 166 153 208 205 197 172 200 189 199 144 191 193 182 168 180 253 36 293 273 225 260 231 221 232 235 253 259 278
268 268 269 253 246 234 241 233 223 203 172 154 177 190 169 199 147 215 177 193 154 194 217 157 133 173 172 161 155 171 155 126 83 269 344 303 296 229 189 193 216 206 195 232
265 269 266 258 244 239 242 230 211 205 211 179 187 158 182 194 193 149 174 192 185 159 146 129 103 82 76 92 43 155 137 121 117 263 351 345 246 189 177 195 222 207 264 256
262 266 269 259 241 243 240 242 230 200 219 193 171 163 167 148 167 107 144 163 150 146 133 90 68 350 17 330 23 23 131 129 91 156 213 298 297 175 156 174 279 207 224 250
263 268 270 262 245 238 240 239 233 247 199 204 182 171 166 151 141 117 107 142 154 148 101 99 185 201 191 274 352 337 108 80 123 79 159 233 242 167 141 123 293 206 195 235
267 274 267 257 244 237 236 236 236 228 245 210 184 177 180 163 139 118 141 148 153 153 133 162 197 213 149 175 167 173 172 176 187 187 238 284 241 173 142 82 245 186 196 215
264 268 269 250 238 234 231 231 231 213 245 197 194 194 155 150 160 144 154 110 161 142 185 188 199 196 208 150 168 182 171 160 191 115 150 278 166 118 184 213 214 199 197 209
263 258 270 254 241 235 226 230 227 216 222 274 202 205 205 208 205 174 167 162 153 161 149 206 178 190 113 167 224 146 224 197 182 189 212 238 189 213 218 240 234 214 217 224
274 283 275 259 226 228 229 234 212 209 213 231 234 191 198 205 208 207 155 180 169 183 174 155 172 210 140 175 234 186 236 186 236 145 239 235 235 239 250 253 254 251 246 246
274 282 320 210 208 213 214 202 167 192 165 195 208 193 190 200 206 204 205 210 180 174 173 159 156 197 190 216 228 194 192 146 187 264 281 279 265 253 267 265 265 260 255 254
290 308 335 306 181 194 200 206 198 204 190 124 171 183 184 192 199 200 201 195 176 161 162 163 209 190 172 146 71 239 191 185 180 227 214 230 260 274 254 249 274 273 256 245
272 294 311 337 149 170 157 182 219 206 182 171 160 127 165 178 185 188 185 177 173 171 163 189 199 201 189 215 226 243 221 223 233 246 267 261 269 272 262 263 275 269 256 251
272 280 321 320 101 155 174 165 127 193 208 151 116 81 114 154 158 150 161 169 161 153 167 183 167 199 204 241 245 220 248 250 247 251 251 262 256 256 274 263 267 257 256 241
276 299 316 343 338 340 230 202 213 126 155 156 96 108 139 164 137 115 141 133 140 158 162 150 176 173 223 254 225 231 248 252 253 254 250 253 256 259 260 262 256 253 250 249
326 283 312 313 269 261 320 257 239 259 198 167 132 164 163 153 158 112 103 119 132 159 170 192 163 220 230 223 204 224 243 238 249 257 255 248 250 255 259 260 251 244 247 247
259 279 320 289 203 270 272 196 147 170 202 215 125 143 144 157 146 108 120 152 149 174 213 147 195 251 250 242 243 255 257 249 249 244 237 235 241 246 249 250 251 248 248 250
288 223 236 265 286 321 175 194 175 173 206 189 129 148 137 164 120 127 155 155 133 173 231 168 255 268 239 254 251 259 259 253 253 253 259 254 262 253 244 247 253 241 234 234
184 232 288 279 220 228 239 209 164 191 192 176 148 134 120 132 143 110 175 131 128 208 135 118 262 252 259 271 274 279 272 261 259 259 256 250 246 242 241 252 257 252 234 228
239 220 244 193 194 136 250 194 140 147 167 180 159 127 144 124 123 78 102 112 143 108 106 230 233 259 273 281 298 304 279 281 273 263 259 254 249 244 245 251 253 260 254 228
209 182 227 209 192 218 208 254 159 206 161 173 160 119 119 113 63 145 101 52 89 81 264 233 233 244 273 304 300 293 302 285 283 282 258 251 251 249 243 244 246 247 247 237
225 212 215 218 228 280 264 326 308 178 161 151 125 86 105 90 112 63 117 98 231 215 228 232 230 307 296 303 314 316 316 313 302 281 259 258 257 250 239 234 237 237 237 241
226 237 261 109 186 275 338 262 235 168 155 149 151 116 82 111 122 135 206 149 220 238 213 232 231 272 284 336 337 323 317 314 322 314 289 268 258 249 244 236 231 232 231 232
231 229 221 203 246 253 269 256 193 163 143 157 137 119 170 109 87 242 198 210 199 211 215 227 230 210 266 346 340 327 320 312 318 323 315 302 280 260 243 233 230 234 229 227